When you browse on this site, cookies collect data to enhance your experience and personalize the content and advertising you see.
Visit our Privacy Policy to learn more. By continuing to use the site, you agree to this use of cookies and data.
  • In Schweiz
  • Länderverzeichnis
  • Für 7 Tage
  • Wassertemperatur
  • Wetterkarte
  • Widgets
  • user-avatar
    Anmelden

    Stündliche Wetter La-Plata

    Heute, 15 November, Freitag

    Zeit Temperatur Niederschläge Wind Luftdruck Luftfeuchtigkeit
    00:00 +18°C° 0 mm 3 m/S 758 mmHg 73%
    01:00 +17°C° 0 mm 3 m/S 758 mmHg 71%
    02:00 +17°C° 0 mm 3 m/S 758 mmHg 68%
    03:00 +16°C° 0 mm 2 m/S 759 mmHg 70%
    04:00 +16°C° 0 mm 2 m/S 759 mmHg 72%
    05:00 +15°C° 0 mm 1 m/S 759 mmHg 74%
    06:00 +19°C° 0 mm 1 m/S 759 mmHg 67%
    07:00 +21°C° 0 mm 1 m/S 760 mmHg 61%
    08:00 +23°C° 0 mm 1 m/S 760 mmHg 55%
    09:00 +25°C° 0 mm 1 m/S 760 mmHg 50%
    10:00 +27°C° 0 mm 1 m/S 760 mmHg 46%
    11:00 +28°C° 0 mm 2 m/S 759 mmHg 42%
    12:00 +29°C° 0 mm 2 m/S 759 mmHg 42%
    13:00 +29°C° 0 mm 3 m/S 758 mmHg 42%
    14:00 +29°C° 0 mm 3 m/S 758 mmHg 42%
    15:00 +28°C° 0 mm 3 m/S 757 mmHg 45%
    16:00 +27°C° 0 mm 4 m/S 757 mmHg 48%
    17:00 +25°C° 0 mm 4 m/S 756 mmHg 50%
    18:00 +23°C° 0 mm 4 m/S 757 mmHg 49%
    19:00 +22°C° 0 mm 4 m/S 757 mmHg 48%
    20:00 +21°C° 0 mm 4 m/S 757 mmHg 47%
    21:00 +21°C° 0 mm 4 m/S 757 mmHg 51%
    22:00 +21°C° 0 mm 5 m/S 757 mmHg 55%
    23:00 +21°C° 0 mm 5 m/S 757 mmHg 59%

    Morgen, 16 November, Samstag

    Zeit Temperatur Niederschläge Wind Luftdruck Luftfeuchtigkeit
    00:00 +21°C° 0 mm 5 m/S 756 mmHg 60%
    01:00 +21°C° 0 mm 5 m/S 756 mmHg 61%
    02:00 +21°C° 0 mm 4 m/S 756 mmHg 62%
    03:00 +21°C° 0 mm 4 m/S 756 mmHg 64%
    04:00 +20°C° 0 mm 4 m/S 756 mmHg 65%
    05:00 +20°C° 0 mm 4 m/S 756 mmHg 67%
    06:00 +21°C° 0.1 mm 4 m/S 757 mmHg 67%
    07:00 +22°C° 0.1 mm 4 m/S 757 mmHg 68%
    08:00 +23°C° 0.1 mm 4 m/S 758 mmHg 68%
    09:00 +23°C° 0.7 mm 4 m/S 758 mmHg 71%
    10:00 +23°C° 0.7 mm 4 m/S 758 mmHg 73%
    11:00 +23°C° 0.7 mm 4 m/S 758 mmHg 76%
    12:00 +23°C° 0.5 mm 4 m/S 758 mmHg 74%
    13:00 +25°C° 0.5 mm 5 m/S 757 mmHg 73%
    14:00 +25°C° 0.5 mm 5 m/S 757 mmHg 72%
    15:00 +25°C° 0 mm 5 m/S 757 mmHg 73%
    16:00 +25°C° 0 mm 5 m/S 756 mmHg 73%
    17:00 +25°C° 0 mm 5 m/S 756 mmHg 74%
    18:00 +22°C° 0 mm 5 m/S 756 mmHg 78%
    19:00 +21°C° 0 mm 5 m/S 757 mmHg 83%
    20:00 +20°C° 0 mm 5 m/S 757 mmHg 88%
    21:00 +20°C° 0 mm 4 m/S 757 mmHg 88%
    22:00 +19°C° 0 mm 3 m/S 757 mmHg 89%
    23:00 +19°C° 0 mm 2 m/S 757 mmHg 89%

    übermorgen, 17 November, Sonntag

    Zeit Temperatur Niederschläge Wind Luftdruck Luftfeuchtigkeit
    00:00 +18°C° 0 mm 2 m/S 757 mmHg 90%
    01:00 +18°C° 0 mm 2 m/S 757 mmHg 90%
    02:00 +19°C° 0 mm 1 m/S 757 mmHg 90%
    03:00 +19°C° 0 mm 1 m/S 757 mmHg 90%
    04:00 +18°C° 0 mm 2 m/S 757 mmHg 90%
    05:00 +18°C° 0 mm 2 m/S 758 mmHg 91%
    06:00 +20°C° 0 mm 3 m/S 758 mmHg 84%
    07:00 +22°C° 0 mm 3 m/S 758 mmHg 77%
    08:00 +25°C° 0 mm 4 m/S 758 mmHg 70%
    09:00 +26°C° 0 mm 4 m/S 758 mmHg 64%
    10:00 +27°C° 0 mm 3 m/S 758 mmHg 57%
    11:00 +29°C° 0 mm 3 m/S 758 mmHg 50%
    12:00 +30°C° 0 mm 4 m/S 757 mmHg 48%
    13:00 +30°C° 0 mm 4 m/S 757 mmHg 46%
    14:00 +32°C° 0 mm 4 m/S 756 mmHg 44%
    15:00 +30°C° 0 mm 4 m/S 756 mmHg 47%
    16:00 +29°C° 0 mm 4 m/S 756 mmHg 50%
    17:00 +29°C° 0 mm 4 m/S 755 mmHg 53%
    18:00 +27°C° 0 mm 4 m/S 756 mmHg 58%
    19:00 +26°C° 0 mm 4 m/S 756 mmHg 62%
    20:00 +25°C° 0 mm 5 m/S 756 mmHg 67%
    21:00 +25°C° 0 mm 4 m/S 757 mmHg 68%
    22:00 +25°C° 0 mm 3 m/S 757 mmHg 69%
    23:00 +25°C° 0 mm 2 m/S 758 mmHg 70%

    18 November, Montag

    Zeit Temperatur Niederschläge Wind Luftdruck Luftfeuchtigkeit
    00:00 +24°C° 0.2 mm 2 m/S 758 mmHg 75%
    01:00 +23°C° 0.2 mm 1 m/S 758 mmHg 80%
    02:00 +22°C° 0.2 mm 1 m/S 757 mmHg 85%
    03:00 +22°C° 0 mm 1 m/S 758 mmHg 85%
    04:00 +22°C° 0 mm 1 m/S 758 mmHg 86%
    05:00 +22°C° 0 mm 1 m/S 758 mmHg 86%
    06:00 +23°C° 0 mm 1 m/S 758 mmHg 82%
    07:00 +24°C° 0 mm 1 m/S 759 mmHg 77%
    08:00 +26°C° 0 mm 1 m/S 759 mmHg 72%
    09:00 +27°C° 0.1 mm 2 m/S 759 mmHg 67%
    10:00 +28°C° 0.1 mm 3 m/S 759 mmHg 62%
    11:00 +29°C° 0.1 mm 3 m/S 759 mmHg 58%
    12:00 +29°C° 0.9 mm 3 m/S 759 mmHg 59%
    13:00 +29°C° 0.9 mm 2 m/S 759 mmHg 61%
    14:00 +29°C° 0.9 mm 2 m/S 758 mmHg 63%
    15:00 +28°C° 0.9 mm 1 m/S 758 mmHg 64%
    16:00 +28°C° 0.9 mm 1 m/S 758 mmHg 65%
    17:00 +28°C° 0.9 mm 1 m/S 758 mmHg 66%
    18:00 +26°C° 0 mm 1 m/S 758 mmHg 69%
    19:00 +25°C° 0 mm 1 m/S 758 mmHg 73%
    20:00 +24°C° 0 mm 2 m/S 759 mmHg 76%
    21:00 +23°C° 0 mm 2 m/S 759 mmHg 76%
    22:00 +23°C° 0 mm 2 m/S 759 mmHg 76%
    23:00 +23°C° 0 mm 2 m/S 759 mmHg 76%

    19 November, Dienstag

    Zeit Temperatur Niederschläge Wind Luftdruck Luftfeuchtigkeit
    00:00 +23°C° 0.3 mm 2 m/S 759 mmHg 78%
    01:00 +22°C° 0.3 mm 1 m/S 759 mmHg 81%
    02:00 +22°C° 0.3 mm 1 m/S 759 mmHg 83%
    03:00 +21°C° 0.1 mm 1 m/S 759 mmHg 84%
    04:00 +21°C° 0.1 mm 1 m/S 759 mmHg 85%
    05:00 +21°C° 0.1 mm 1 m/S 760 mmHg 86%
    06:00 +23°C° 0 mm 1 m/S 760 mmHg 80%
    07:00 +25°C° 0 mm 2 m/S 760 mmHg 74%
    08:00 +26°C° 0 mm 2 m/S 760 mmHg 68%
    09:00 +28°C° 0 mm 2 m/S 760 mmHg 62%
    10:00 +29°C° 0 mm 3 m/S 760 mmHg 56%
    11:00 +30°C° 0 mm 3 m/S 759 mmHg 50%
    12:00 +30°C° 0 mm 3 m/S 759 mmHg 48%
    13:00 +31°C° 0 mm 3 m/S 758 mmHg 46%
    14:00 +31°C° 0 mm 3 m/S 757 mmHg 45%
    15:00 +30°C° 0 mm 4 m/S 757 mmHg 49%
    16:00 +29°C° 0 mm 4 m/S 757 mmHg 54%
    17:00 +29°C° 0 mm 4 m/S 756 mmHg 58%
    18:00 +27°C° 0 mm 5 m/S 756 mmHg 63%
    19:00 +26°C° 0 mm 5 m/S 756 mmHg 68%
    20:00 +25°C° 0 mm 5 m/S 756 mmHg 74%
    21:00 +25°C° 0 mm 5 m/S 756 mmHg 72%
    22:00 +25°C° 0 mm 5 m/S 756 mmHg 70%
    23:00 +25°C° 0 mm 5 m/S 756 mmHg 68%

    20 November, Mittwoch

    Zeit Temperatur Niederschläge Wind Luftdruck Luftfeuchtigkeit
    00:00 +23°C° 0 mm 5 m/S 756 mmHg 68%
    01:00 +23°C° 0 mm 5 m/S 756 mmHg 69%
    02:00 +23°C° 0 mm 5 m/S 756 mmHg 70%
    03:00 +22°C° 0 mm 5 m/S 756 mmHg 72%
    04:00 +22°C° 0 mm 5 m/S 756 mmHg 75%
    05:00 +21°C° 0 mm 5 m/S 756 mmHg 78%
    06:00 +23°C° 0 mm 5 m/S 756 mmHg 75%
    07:00 +25°C° 0 mm 4 m/S 756 mmHg 71%
    08:00 +26°C° 0 mm 3 m/S 756 mmHg 68%
    09:00 +27°C° 0 mm 3 m/S 756 mmHg 62%
    10:00 +29°C° 0 mm 2 m/S 756 mmHg 55%
    11:00 +31°C° 0 mm 2 m/S 756 mmHg 48%
    12:00 +32°C° 0 mm 2 m/S 756 mmHg 46%
    13:00 +32°C° 0 mm 2 m/S 756 mmHg 44%
    14:00 +34°C° 0 mm 2 m/S 756 mmHg 42%
    15:00 +33°C° 0 mm 3 m/S 756 mmHg 48%
    16:00 +32°C° 0 mm 4 m/S 756 mmHg 53%
    17:00 +30°C° 0 mm 4 m/S 756 mmHg 58%
    18:00 +27°C° 0 mm 6 m/S 757 mmHg 65%
    19:00 +23°C° 0 mm 7 m/S 758 mmHg 72%
    20:00 +19°C° 0 mm 9 m/S 758 mmHg 80%
    21:00 +19°C° 0 mm 9 m/S 759 mmHg 77%
    22:00 +19°C° 0 mm 9 m/S 759 mmHg 74%
    23:00 +18°C° 0 mm 9 m/S 759 mmHg 71%
    Mehr zeigen